Location: Cluj-Napoca
(46.7712°N, 23.6236°E)
Time: 17:51:22
(UTC+02:00)

ISS - Visible Passes

Search period start: 17 January 2020 00:00
Search period end: 27 January 2020 00:00
Orbit: 415 x 421 km, 51.6° (Epoch: 18 January)

Date Brightness Start Highest point End Pass type
(mag) Time Alt. Az. Time Alt. Az. Time Alt. Az.
20 Jan -1.6 19:25:28 10° SSW 19:26:50 20° SSW 19:26:50 20° SSW visible
21 Jan -2.2 18:38:02 10° S 18:40:41 22° SE 18:41:08 21° SE visible
21 Jan -0.4 20:13:49 10° WSW 20:14:05 12° WSW 20:14:05 12° WSW visible
22 Jan -1.5 17:51:03 10° SSE 17:52:52 14° SE 17:54:42 10° ESE visible
22 Jan -2.8 19:25:49 10° WSW 19:28:17 45° SW 19:28:17 45° SW visible
23 Jan -3.4 18:37:56 10° SW 18:41:12 51° SSE 18:42:24 32° E visible
23 Jan -0.5 20:14:48 10° W 20:15:21 14° W 20:15:21 14° W visible
24 Jan -2.7 17:50:13 10° SSW 17:53:16 32° SE 17:56:20 10° ENE visible
24 Jan -2.9 19:26:37 10° W 19:29:24 48° WNW 19:29:24 48° WNW visible
25 Jan -3.7 18:38:30 10° WSW 18:41:52 75° NNW 18:43:24 29° ENE visible
25 Jan -0.5 20:15:50 10° WNW 20:16:20 13° WNW 20:16:20 13° WNW visible
26 Jan -3.7 17:50:28 10° WSW 17:53:49 76° SSE 17:57:11 10° ENE visible
26 Jan -2.5 19:27:36 10° W 19:30:18 35° NNW 19:30:18 35° NNW visible
